Regional Weather Roundup
Issued by NWS

Home | Current Version | Previous Version | Graphics & Text | Print | Product List | Glossary On
Versions: 1 2 3 4 5 6 7 8 9 10 11 12 13 14 15 16 17 18 19 20 21 22 23 24 25 26 27 28
000
ASUS45 KCYS 250110
RWRWY

WYOMING REGIONAL WEATHER ROUNDUP
NATIONAL WEATHER SERVICE CHEYENNE WY
700 PM MDT SAT JUN 24 2017

NOTE:  "FAIR" INDICATES FEW OR NO CLOUDS BELOW 12,000 FEET
WITH NO SIGNIFICANT WEATHER AND/OR OBSTRUCTIONS TO VISIBILITY.

WYZ001-250200-
YELLOWSTONE NATIONAL PARK

CITY           SKY/WX    TMP DP  RH WIND       PRES   REMARKS
LK YELLOWSTONE   N/A     65  28  24 NW8       30.41S
W YELLOWSTONE  NOT AVBL

$$
WYZ002>013-054>058-071-098>099-250200-
NORTHERN WYOMING

CITY           SKY/WX    TMP DP  RH WIND       PRES   REMARKS
JACKSON        MOSUNNY   72  34  25 NW7       30.31S
CODY           FAIR      69  35  28 N15       30.31S
GREYBULL       FAIR      77  30  17 N14G23    30.22S
WORLAND        FAIR      77  31  18 N8        30.23F
SHERIDAN       PTSUNNY   69  38  32 N8        30.30R
BUFFALO        FAIR      65  36  34 N8        30.34S
GILLETTE       FAIR      70  28  21 N12       30.29F
NEWCASTLE      FAIR      68  23  18 NW14G22   30.30S

$$
WYZ014>020-022>026-101>103-250200-
CENTRAL WYOMING

CITY           SKY/WX    TMP DP  RH WIND       PRES   REMARKS
BIG PINEY      PTSUNNY   72  35  25 NE8       30.32S
PINEDALE       FAIR      70  32  24 NW13      30.33S
DUBOIS         FAIR      64  32  29 SE13G18   30.34S
LANDER         LGT RAIN  73  36  25 NE6       30.25S
RIVERTON       PTSUNNY   72  32  23 NE9       30.27S
CASPER         FAIR      68  29  23 E7        30.29S
DOUGLAS        FAIR      71  33  24 N9        30.30F

$$
WYZ021-027>030-104>119-250200-
SOUTHERN WYOMING

CITY           SKY/WX    TMP DP  RH WIND       PRES   REMARKS
EVANSTON       FAIR      75  35  23 W10       30.32S
KEMMERER         N/A    N/A N/A N/A NW13      30.34S
FORT BRIDGER   FAIR      78  25  14 W9G18     30.34S
ROCK SPRINGS   FAIR      74  24  15 S3        30.30S
DIXON          FAIR      76  24  14 NE12G18   30.32R
RAWLINS        FAIR      69  25  19 E9G21     30.34S
SARATOGA       FAIR      70  23  17 NW7       30.36S
LARAMIE        PTSUNNY   65  37  35 E17       30.37R
CHEYENNE       CLOUDY    65  36  34 E9        30.34R
TORRINGTON     FAIR      70  35  27 NE9       30.26R
PINE BLUFFS    FAIR      68  36  30 NE6       30.31R

$$




USA.gov is the U.S. government's official web portal to all federal, state and local government web resources and services.